Flag for Switzerland Weather past 2 weeks in Kreuzlingen, Thurgau, Switzerland

Now
63 °F

Clear.


Feels Like: 63 °F
Forecast: 52 / 83 °F
Wind: 1 mph from West

Location: Konstanz

Current Time: Aug 3, 2015 at 3:04:22 AM

Latest Report: Aug 3, 2015 at 2:00 AM


Visibility: 25 mi

Pressure: 30.05 "Hg

Humidity: 77%

Dew point: 55 °F

Location of KreuzlingenLocation

Historic Weather in Kreuzlingen — Graph

°F

Kreuzlingen temperature yesterday

Maximum temperature yesterday: 80 °F (at 6:00 PM)
Minimum temperature yesterday: 62 °F (at 7:00 AM)
Average temperature yesterday: 71 °F

Past Weeks' High & Low Weather Summary

 TemperatureHumidityPressure
High95 °F (Jul 22, 5:00 PM)97% (Jul 30, 7:00 AM)30.11 "Hg (Jul 30, 7:00 AM)
Low51 °F (Jul 30, 5:00 AM)22% (Jul 22, 5:00 PM)29.66 "Hg (Jul 24, 7:00 PM)
Average69 °F63%29.92 "Hg
* Reported Jul 19 2:00 AM — Aug 3 2:00 AM, Kreuzlingen, Weather by CustomWeather, © 2015

Note: Actual official high and low records may vary slightly from our data, if they occured in-between our weather recording intervals... More about our weather records

Advertising

Kreuzlingen weather history for previous 24 hours

 ConditionsComfort  
Time TempWeatherWind HumidityBarometerVisibility
2:00 AM
Mon, Aug 3
63 °FClear.1 mph77%30.05 "Hg25 mi
1:00 AM65 °FClear.1 mph69%30.05 "Hg34 mi
11:00 PM
Sun, Aug 2
70 °FClear.2 mph60%30.03 "Hg34 mi
10:00 PM71 °FClear.2 mph58%30.03 "Hg28 mi
9:00 PM74 °FPassing clouds.1 mph54%30.01 "Hg25 mi
8:00 PM78 °FPassing clouds.2 mph46%30.00 "Hg28 mi
7:00 PM80 °FPassing clouds.2 mph41%30.00 "Hg28 mi
6:00 PM80 °FPassing clouds.3 mph39%30.01 "Hg28 mi
5:00 PM79 °FPassing clouds.2 mph41%30.02 "Hg28 mi
4:00 PM79 °FPassing clouds.2 mph46%30.03 "Hg25 mi
3:00 PM77 °FPassing clouds.3 mph50%30.04 "Hg22 mi
2:00 PM76 °FPassing clouds.3 mph49%30.06 "Hg22 mi
1:00 PM74 °FScattered clouds.2 mph55%30.09 "Hg19 mi
12:00 PM71 °FScattered clouds.2 mph62%30.10 "Hg19 mi
11:00 AM69 °FPartly sunny.1 mph71%30.11 "Hg11 mi
10:00 AM66 °FPartly sunny.1 mph76%30.11 "Hg6 mi
9:00 AM63 °FOvercast.1 mph85%30.11 "Hg6 mi
8:00 AM63 °FOvercast.1 mph87%30.10 "Hg9 mi
7:00 AM62 °FOvercast.1 mph90%30.09 "Hg11 mi
5:00 AM62 °FOvercast.No wind89%30.07 "Hg8 mi
4:00 AM63 °FOvercast.1 mph87%30.06 "Hg11 mi
Weather by CustomWeather, © 2015

See weather overviewHow to use our weather pages